OneWeb SL0211

operational
NORAD ID: 48767 Int'l Des: 2021-045 Owner: ONEWEBN Country: UK Constellation: oneweb
LEOCIRCULARPOLARONEWEB_TYPE

About OneWeb SL0211

Description loading...

Live Position

Loading 3D Globe...

Upcoming Passes

Altitude History

Altitude vs Time

uPlot chart will show altitude changes over time

Two-Line Element Set

1 48767U 21045A 26036.75070117 .00000115 00000-0 26947-3 0 9997
2 48767 87.8991 285.3509 0001331 98.3777 261.7505 13.16141004227151
Epoch: Feb 5, 2026 • Age: 17 hours

Current Status

Altitude 1207.4 km
Velocity 7.26 km/s
Sub-Earth Point 52.51°N, 9.19°W
Launch Date May 28, 2021
Age 4.6 years
Type internet

Technical Details

Classification Payload
Mass 148.00 kg
Dry Mass 140.00 kg
Total Mass 148.00 kg
Length 1.30 m
Diameter 1.00 m
Span 5.00 m
Shape Trapezoid+2 pan
Manufacturer ONEWUS
Bus Type ARROW
Phase Status In Orbit
Owner/State ONEWEBN/UK

Large Constellations

Loading constellations...